Friday Harbor, WA

10:35 PM PST on February 22, 2018 (GMT -0800)
Friday Harbor

Weather History for KFHR - November, 2011

Change the Weather History Date:

Thursday, November 24, 2011

  Actual Average Record
Temperature  
Mean Temperature 40 °F -  
Max Temperature 46 °F 46 °F 55 °F (2004)
Min Temperature 35 °F 37 °F 25 °F (2010)
Degree Days  
Heating Degree Days 24    
Moisture  
Dew Point 38 °F    
Average Humidity 82    
Maximum Humidity 93    
Minimum Humidity 71    
Precipitation  
Precipitation 0.20 in - - ()
Sea Level Pressure  
Sea Level Pressure 29.66 in    
Wind  
Wind Speed 11 mph (SE)    
Max Wind Speed 37 mph    
Max Gust Speed 51 mph    
Visibility 10 miles    
Events Rain    
Averages and records for this station are not official NWS values.
T = Trace of Precipitation, MM = Missing Value Source: NWS Daily Summary

Daily Weather History Graph

Daily Weather History Graph

Search for Another Location

Airport or City:

Trip Planner

Search our weather history database for the weather conditions in past years. The results will help you decide how hot, cold, wet, or windy it might be!

Date:

Astronomy

Nov. 24, 2011 Rise Set
Actual Time 7:33 AM PST 4:23 PM PST
Civil Twilight 6:57 AM PST 4:59 PM PST
Nautical Twilight 6:19 AM PST 5:38 PM PST
Astronomical Twilight 5:41 AM PST 6:15 PM PST
Moon 7:00 AM PST (11/24) 3:56 PM PST (11/24)
Length of Visible Light 10h 01m
Length of Day
8h 50m
Waning Crescent, 0% of the Moon is Illuminated
Nov 24
Waning Crescent
Nov 24
New
Dec 2
First Quarter
Dec 10
Full
Dec 17
Last Quarter

Hourly Weather History & Observations

Time (PST) Temp. Windchill Dew Point Humidity Pressure Visibility Wind Dir Wind Speed Gust Speed Precip Events Conditions
12:17 AM 35.6 °F - 33.8 °F 93% 29.82 in 10.0 mi Calm Calm - N/A   Mostly Cloudy
12:53 AM 37.0 °F - 35.1 °F 93% 29.83 in 10.0 mi Calm Calm - N/A   Mostly Cloudy
1:20 AM 35.6 °F - 33.8 °F 93% 29.82 in 10.0 mi Calm Calm - N/A   Scattered Clouds
1:53 AM 41.0 °F 35.8 °F 37.0 °F 86% 29.82 in 10.0 mi SE 8.1 mph - N/A   Scattered Clouds
2:04 AM 41.0 °F 37.1 °F 37.4 °F 87% 29.81 in 10.0 mi East 5.8 mph - N/A   Mostly Cloudy
2:18 AM 41.0 °F 37.1 °F 37.4 °F 87% 29.81 in 10.0 mi ENE 5.8 mph - N/A   Mostly Cloudy
2:25 AM 42.8 °F 38.0 °F 37.4 °F 81% 29.81 in 10.0 mi East 8.1 mph - N/A   Scattered Clouds
2:53 AM 41.0 °F 35.8 °F 37.0 °F 86% 29.80 in 10.0 mi East 8.1 mph - N/A   Clear
3:53 AM 42.1 °F 36.1 °F 37.9 °F 85% 29.79 in 10.0 mi East 10.4 mph - N/A   Mostly Cloudy
4:53 AM 43.0 °F 36.8 °F 37.9 °F 82% 29.77 in 10.0 mi ESE 11.5 mph - N/A   Overcast
5:53 AM 43.0 °F 36.4 °F 37.9 °F 82% 29.73 in 10.0 mi East 12.7 mph - N/A   Overcast
6:48 AM 44.6 °F 37.8 °F 37.4 °F 76% 29.69 in 10.0 mi SE 15.0 mph 23.0 mph N/A   Overcast
6:53 AM 44.1 °F 36.8 °F 39.0 °F 82% 29.70 in 10.0 mi ESE 16.1 mph 23.0 mph N/A   Mostly Cloudy
7:53 AM 45.0 °F 37.6 °F 39.0 °F 80% 29.68 in 10.0 mi ESE 17.3 mph 25.3 mph N/A   Overcast
8:20 AM 44.6 °F 36.1 °F 37.4 °F 76% 29.65 in 10.0 mi ESE 21.9 mph 28.8 mph N/A   Overcast
8:33 AM 44.6 °F 36.6 °F 37.4 °F 76% 29.65 in 10.0 mi ESE 19.6 mph 28.8 mph N/A   Overcast
8:53 AM 45.0 °F 36.2 °F 37.9 °F 76% 29.63 in 10.0 mi SE 24.2 mph 35.7 mph N/A   Overcast
9:53 AM 46.0 °F 37.0 °F 37.9 °F 73% 29.57 in 10.0 mi ESE 27.6 mph 40.3 mph N/A   Overcast
10:53 AM 46.0 °F 37.4 °F 37.9 °F 73% 29.55 in 10.0 mi SE 25.3 mph 46.0 mph N/A   Overcast
11:01 AM 46.4 °F 37.4 °F 37.4 °F 71% 29.56 in 10.0 mi SE 28.8 mph 42.6 mph N/A   Overcast
11:53 AM 45.0 °F 34.4 °F 37.9 °F 76% 29.51 in 10.0 mi SE 35.7 mph 48.3 mph N/A   Overcast
12:53 PM 45.0 °F 35.2 °F 37.9 °F 76% 29.47 in 10.0 mi SE 29.9 mph 47.2 mph N/A   Overcast
1:53 PM 45.0 °F 34.3 °F 37.9 °F 76% 29.44 in 10.0 mi SE 36.8 mph 50.6 mph N/A   Overcast
2:53 PM 44.1 °F 35.4 °F 39.0 °F 82% 29.49 in 4.0 mi SSE 21.9 mph 38.0 mph 0.02 in Rain Light Rain
3:15 PM 44.6 °F 35.5 °F 39.2 °F 81% 29.48 in 10.0 mi SSE 25.3 mph 35.7 mph 0.01 in Rain Light Rain
3:53 PM 44.1 °F 36.2 °F 39.0 °F 82% 29.49 in 10.0 mi SSE 18.4 mph 33.4 mph 0.02 in Rain Light Rain
4:53 PM 42.1 °F 36.6 °F 39.0 °F 89% 29.55 in 4.0 mi South 9.2 mph 24.2 mph 0.09 in Rain Rain
5:40 PM 42.8 °F 38.0 °F 39.2 °F 87% 29.56 in 10.0 mi South 8.1 mph 16.1 mph 0.02 in Rain Light Rain
5:53 PM 43.0 °F 38.2 °F 39.9 °F 89% 29.56 in 10.0 mi SSE 8.1 mph - 0.02 in Rain Light Rain
6:53 PM 46.0 °F 41.4 °F 39.9 °F 79% 29.60 in 10.0 mi SSW 9.2 mph 17.3 mph 0.00 in   Overcast
7:13 PM 44.6 °F 40.7 °F 39.2 °F 81% 29.60 in 10.0 mi SW 6.9 mph - 0.01 in   Mostly Cloudy
7:53 PM 44.1 °F 38.6 °F 37.9 °F 79% 29.63 in 10.0 mi SSW 10.4 mph 23.0 mph 0.01 in   Partly Cloudy
8:53 PM 43.0 °F 40.3 °F 37.9 °F 82% 29.69 in 10.0 mi Variable 4.6 mph 19.6 mph 0.01 in Rain Light Rain
9:53 PM 42.1 °F 35.2 °F 37.9 °F 85% 29.73 in 5.0 mi SW 12.7 mph 19.6 mph 0.03 in Rain Light Rain
11:53 PM 41.0 °F 35.2 °F 33.1 °F 73% 29.82 in 10.0 mi SW 9.2 mph - N/A   Clear